Location: Armagh
(54.3500°N, 6.6670°W)
Time: 00:31:59
(UTC+01:00)

ISS - Visible Passes

Search period start: 23 May 2018 00:00
Search period end: 02 June 2018 00:00
Orbit: 402 x 407 km, 51.6° (Epoch: 23 May)

Date Brightness Start Highest point End Pass type
(mag) Time Alt. Az. Time Alt. Az. Time Alt. Az.
23 May -3.8 01:11:13 10° W 01:14:26 53° S 01:17:38 10° ESE visible
23 May -3.0 02:47:40 10° W 02:50:35 30° SSW 02:53:30 10° SE visible
23 May -2.9 22:43:17 10° SW 22:46:11 29° SSE 22:49:04 10° E visible
24 May -3.8 00:19:08 10° WSW 00:22:20 52° S 00:25:32 10° E visible
24 May -3.4 01:55:29 10° W 01:58:33 38° SSW 02:00:20 20° SE visible
24 May -1.5 03:32:38 10° WSW 03:32:47 10° WSW 03:32:47 10° WSW visible
24 May -3.6 23:27:03 10° WSW 23:30:13 48° S 23:33:24 10° E visible
25 May -3.6 01:03:18 10° W 01:06:28 46° S 01:08:20 21° SE visible
25 May -1.8 02:40:01 10° W 02:40:55 15° WSW 02:40:55 15° WSW visible
25 May -3.4 22:35:01 10° SW 22:38:07 40° SSE 22:41:13 10° E visible
26 May -3.7 00:11:09 10° W 00:14:21 51° S 00:17:17 12° ESE visible
26 May -2.6 01:47:39 10° W 01:49:54 25° SW 01:49:54 25° SW visible
26 May -3.7 23:19:00 10° WSW 23:22:12 53° S 23:25:25 10° ESE visible
27 May -3.2 00:55:23 10° W 00:58:24 35° SSW 00:59:05 31° S visible
27 May -3.6 22:26:52 10° WSW 22:30:03 50° S 22:33:14 10° E visible
28 May -3.5 00:03:09 10° W 00:06:18 43° SSW 00:08:22 18° SE visible
28 May -1.7 01:40:00 10° WSW 01:40:59 14° WSW 01:40:59 14° WSW visible
28 May -3.6 23:10:57 10° W 23:14:09 50° S 23:17:20 10° ESE visible
29 May -2.6 00:47:31 10° W 00:50:14 24° SSW 00:50:20 24° SSW visible
29 May -3.0 23:55:10 10° W 23:58:09 32° SSW 23:59:42 21° SSE visible
30 May -3.3 23:02:54 10° W 23:06:00 40° SSW 23:09:06 10° SE visible
31 May -1.9 00:39:53 10° WSW 00:41:44 15° SW 00:41:44 15° SW visible
31 May -2.3 23:47:17 10° W 23:49:52 22° SSW 23:51:10 17° S visible
01 Jun -2.7 22:54:52 10° W 22:57:46 29° SSW 23:00:36 10° SE visible
